This demonstration page uses our WeatherBlox Daily Observations layout. Learn more.

40.92945, -100.16068

Hourly Observations for June 16, 2017

Temp ( °F °C ) Dew Point ( °F °C ) Humidity (%) Winds ( mph kmh ) Pressure ( in mb ) Visibility ( mi km ) Precip ( " mm )
12:15 am 00:15 Clear 64 18 56 13.5 75 75 SW 3 6 29.83 1010 7 11.26538 0 0
12:35 am 00:35 Clear 64 17.8 57 13.8 78 78 W 5 7 29.83 1010 10 16.0934 0 0
12:55 am 00:55 Clear 60 15.7 56 13.1 85 85 NW 3 6 29.8 1009 10 16.0934 0 0
1:15 am 01:15 Clear 60 15.7 56 13.6 87 87 N 7 11 29.8 1009 10 16.0934 0 0
1:35 am 01:35 Clear 60 15.4 55 12.6 84 84 N 6 9 29.8 1009 10 16.0934 0 0
1:55 am 01:55 Clear 60 15.6 55 12.5 82 82 N 7 11 29.8 1009 10 16.0934 0 0
2:15 am 02:15 Clear 60 15.7 54 12.2 80 80 N 6 9 29.8 1009 10 16.0934 0 0
2:35 am 02:35 Clear 60 15.5 54 12 80 80 Calm 29.8 1009 10 16.0934 0 0
2:55 am 02:55 Clear 60 15.4 54 12 80 80 W 3 6 29.8 1009 10 16.0934 0 0
3:15 am 03:15 Clear 58 14.5 53 11.8 84 84 W 3 6 29.83 1010 10 16.0934 0 0
3:35 am 03:35 Clear 59 14.8 54 12.2 85 85 Calm 29.83 1010 10 16.0934 0 0
3:55 am 03:55 Clear 59 15.2 55 12.7 85 85 Calm 29.77 1008 10 16.0934 0 0
4:15 am 04:15 Clear 59 15.2 56 13.4 89 89 Calm 29.8 1009 10 16.0934 0 0
4:35 am 04:35 Clear 60 15.7 57 13.8 89 89 Calm 29.77 1008 10 16.0934 0 0
4:55 am 04:55 Clear 61 16 57 14 88 88 Calm 29.77 1008 10 16.0934 0 0
5:15 am 05:15 Clear 62 16.6 58 14.2 86 86 W 3 6 29.8 1009 10 16.0934 0 0
5:35 am 05:35 Clear 62 16.7 58 14.5 87 87 Calm 29.8 1009 10 16.0934 0 0
5:55 am 05:55 Clear 62 16.7 58 14.5 87 87 Calm 29.8 1009 10 16.0934 0 0
6:15 am 06:15 Sunny 62 16.7 58 14.7 88 88 NNW 3 6 29.8 1009 10 16.0934 0 0
6:35 am 06:35 Sunny 62 16.6 58 14.7 89 89 NNW 3 6 29.77 1008 10 16.0934 0 0
6:55 am 06:55 Sunny 63 17 58 14.6 86 86 Calm 29.77 1008 10 16.0934 0 0
7:15 am 07:15 Sunny 63 17.3 59 15.2 88 88 Calm 29.77 1008 10 16.0934 0 0
7:35 am 07:35 Sunny 65 18.3 59 15.2 82 82 Calm 29.74 1007 10 16.0934 0 0
7:55 am 07:55 Sunny 65 18.6 60 15.5 82 82 NNE 5 7 29.74 1007 10 16.0934 0 0
8:15 am 08:15 Sunny 66 18.7 59 15.2 80 80 NNE 3 6 29.74 1007 10 16.0934 0 0
8:35 am 08:35 Sunny 70 21.3 60 15.4 69 69 Calm 29.68 1005 10 16.0934 0 0
8:55 am 08:55 Sunny 73 22.6 60 15.7 65 65 Calm 29.68 1005 10 16.0934 0 0
9:15 am 09:15 Sunny 75 23.7 59 15.2 59 59 Calm 29.68 1005 10 16.0934 0 0
9:35 am 09:35 Sunny 77 25.2 61 16 57 57 S 3 6 29.65 1004 10 16.0934 0 0
9:55 am 09:55 Sunny 80 26.5 62 16.8 55 55 S 5 7 29.62 1003 10 16.0934 0 0
10:15 am 10:15 Sunny 82 27.7 64 17.5 54 54 S 6 9 29.62 1003 7 11.26538 0 0
10:35 am 10:35 Sunny 84 29.1 63 17.3 49 49 SE 5 7 29.59 1002 10 16.0934 0 0
10:55 am 10:55 Sunny 85 29.5 64 17.9 50 50 SE 3 6 29.59 1002 10 16.0934 0 0
11:15 am 11:15 Sunny 87 30.6 64 17.5 45 45 SSE 8 13 29.59 1002 10 16.0934 0 0
11:35 am 11:35 Sunny 89 31.5 62 16.5 40 40 S 6 9 29.59 1002 10 16.0934 0 0
11:55 am 11:55 Sunny 89 31.9 63 17.1 41 41 S 9 15 29.56 1001 10 16.0934 0 0
12:15 pm 12:15 Sunny 90 32 63 17 41 41 SSW 8 13 29.53 1000 10 16.0934 0 0
12:35 pm 12:35 Sunny 91 32.5 62 16.4 38 38 S 6 9 29.53 1000 10 16.0934 0 0
12:55 pm 12:55 Sunny 92 33.1 60 15.6 35 35 S 8 13 29.53 1000 10 16.0934 0 0
1:15 pm 13:15 Sunny 92 33.3 60 15.6 34 34 S 3 6 29.53 1000 10 16.0934 0 0
1:35 pm 13:35 Sunny 91 33 60 15.4 35 35 S 9 15 29.5 999 10 16.0934 0 0
1:55 pm 13:55 Sunny 94 34.4 60 15.4 32 32 S 8 13 29.5 999 10 16.0934 0 0
2:15 pm 14:15 Sunny 94 34.3 59 15.2 32 32 S 9 15 29.5 999 10 16.0934 0 0
2:35 pm 14:35 Sunny 93 34.1 60 15.4 33 33 SW 12 19 29.5 999 10 16.0934 0 0
2:55 pm 14:55 Partly Cloudy 93 34.1 60 15.4 33 33 SW 8 13 29.5 999 10 16.0934 0 0
3:15 pm 15:15 Partly Cloudy 95 34.9 60 15.4 31 31 S 7 11 29.5 999 10 16.0934 0 0
3:35 pm 15:35 Sunny 96 35.6 59 15.1 29 29 S 7 11 29.47 998 10 16.0934 0 0
3:55 pm 15:55 Partly Cloudy 95 35.2 59 14.9 30 30 WSW 8 13 29.47 998 10 16.0934 0 0
4:15 pm 16:15 Sunny 95 35.2 59 14.9 30 30 N 3 6 29.47 998 10 16.0934 0 0
4:35 pm 16:35 Sunny 95 35.2 55 12.6 25 25 N 6 9 29.47 998 10 16.0934 0 0
4:55 pm 16:55 Sunny 94 34.4 55 12.9 27 27 NW 7 11 29.5 999 10 16.0934 0 0
5:15 pm 17:15 Sunny 95 35.2 49 9.4 21 21 Calm 29.44 997 10 16.0934 0 0
5:35 pm 17:35 Sunny 96 35.3 49 9.4 20 20 WNW 7 11 29.44 997 10 16.0934 0 0
5:55 pm 17:55 Sunny 91 32.7 54 12 28 28 NW 8 13 29.47 998 10 16.0934 0 0
6:15 pm 18:15 Sunny 88 30.9 59 15.2 39 39 NW 8 13 29.47 998 10 16.0934 0 0
6:35 pm 18:35 Sunny 93 33.9 53 11.8 26 26 NW 12 19 29.47 998 10 16.0934 0 0
6:55 pm 18:55 Sunny 91 32.9 51 10.6 25 25 WNW 9 15 29.44 997 10 16.0934 0 0
7:15 pm 19:15 Sunny 91 33 53 11.6 27 27 NW 10 17 29.44 997 10 16.0934 0 0
7:35 pm 19:35 Sunny 89 31.7 53 11.5 29 29 NW 9 15 29.44 997 10 16.0934 0 0
7:55 pm 19:55 Sunny 88 31 52 11.1 29 29 NW 12 19 29.44 997 10 16.0934 0 0
8:15 pm 20:15 Sunny 87 30.3 51 10.5 29 29 NNW 8 13 29.47 998 10 16.0934 0 0
8:35 pm 20:35 Sunny 83 28.5 51 10.7 33 33 N 6 9 29.5 999 10 16.0934 0 0
8:55 pm 20:55 Sunny 83 28.6 55 12.5 37 37 NNE 16 26 29.5 999 10 16.0934 0 0
9:15 pm 21:15 Clear 81 27.1 58 14.4 46 46 NNE 14 22 29.5 999 10 16.0934 0 0
9:35 pm 21:35 Clear 79 26 59 14.8 50 50 NE 10 17 29.56 1001 10 16.0934 0 0
9:55 pm 21:55 Clear 77 25 59 15 54 54 NNE 10 17 29.56 1001 10 16.0934 0 0
10:15 pm 22:15 Clear 75 24 58 14.7 56 56 NE 9 15 29.56 1001 10 16.0934 0 0
10:35 pm 22:35 Clear 73 23 58 14.2 58 58 NE 7 11 29.59 1002 10 16.0934 0 0
10:55 pm 22:55 Clear 73 22.7 57 13.9 58 58 NE 9 15 29.59 1002 10 16.0934 0 0
11:15 pm 23:15 Clear 71 21.9 57 14 61 61 NE 6 9 29.59 1002 10 16.0934 0 0
11:35 pm 23:35 Clear 71 21.6 57 14 62 62 NE 8 13 29.59 1002 10 16.0934 0 0
11:55 pm 23:55 Clear 70 21.1 57 14 64 64 NE 6 9 29.59 1002 10 16.0934 0 0

Powered by AerisWeather